Location: *
(51.5000°N, 0.1100°W)
Time: 21:27:49
(UTC+00:00)

Cosmos 1980 Rocket - Pass Details

Date: 25 May 2024
Orbit: 827 x 851 km, 71.0° (Epoch: 16 June)

Event Time Altitude Azimuth Distance (km) Brightness Sun altitude
Rises 00:31:31 0° 326° (NW) 3,429 6.1 -17.1°
Reaches altitude 10° 00:34:04 10° 320° (NW) 2,489 5.2 -17.0°
Maximum altitude 00:39:27 45° 250° (WSW) 1,153 2.7 -16.9°
Enters shadow 00:42:03 27° 196° (SSW) 1,561 3.0 -16.8°
